Regional Weather Roundup
Issued by NWS Columbia, SC

Home | Current Version | Previous Version | Text Only | Print | Product List | Glossary On
Versions: 1 2 3 4 5 6 7 8 9 10 11 12 13 14 15 16 17 18 19 20 21 22 23 24 25 26 27 28 29 30 31 32 33 34 35 36 37 38 39 40 41 42 43 44 45 46 47 48 49 50
840
ASUS42 KCAE 251910
RWRCAE
REGIONAL WEATHER ROUNDUP
NATIONAL WEATHER SERVICE COLUMBIA SC
300 PM EDT SAT MAY 25 2019

NOTE: "FAIR" INDICATES FEW OR NO CLOUDS BELOW 12,000 FEET WITH NO
SIGNIFICANT WEATHER AND/OR OBSTRUCTIONS TO VISIBILITY.

NOT ALL STATIONS ARE QUALITY CONTROLLED BY THE NATIONAL
WEATHER SERVICE. USE DATA WITH CAUTION...ESPECIALLY
DEWPOINT OBSERVATIONS.

SCZ001>056-GAZ040-063>065-077-252000-
...UPSTATE SOUTH CAROLINA...

CITY           SKY/WX    TMP DP  RH WIND       PRES   REMARKS
ANDERSON       FAIR      94  62  34 W9        30.13F
LIBERTY        FAIR      95  64  35 SW5       30.12F HX  97
SPARTANBURG    FAIR      91  63  38 SW3       30.12F
CLEMSON        FAIR      93  65  39 VRB6      30.14F HX  95
GREENVILLE     FAIR      95  61  32 SW14G22   30.14F HX  95
GREENWOOD      FAIR      93  63  36 W8        30.13F
GREER          PTSUNNY   91  60  35 SW8       30.13F
ROCK HILL      FAIR      94  65  38 W5        30.12F HX  96
CHESTER        FAIR      93  61  33 W3        30.13F
LAURENS        FAIR      93  63  36 NW7       30.13F


...CENTRAL SOUTH CAROLINA...

CITY           SKY/WX    TMP DP  RH WIND       PRES   REMARKS
COLUMBIA APT   FAIR     100  60  26 NW9       30.08F HX 100
COLUMBIA OWENS FAIR      98  59  27 MISG      30.09F HX  98
ORANGEBURG     FAIR      97  62  31 CALM      30.09F HX  98
NEWBERRY       FAIR      95  64  36 W6G17     30.14F HX  97
AIKEN          FAIR      95  61  31 NW5       30.14F HX  95
BARNWELL       FAIR      97  63  32 CALM      30.09F HX  98
MANNING        FAIR      95  64  36 S7        30.10S HX  97
CAMDEN         FAIR      97  61  30 SW5       30.09F HX  97
LANCASTER      MOCLDY    91  68  46 N6        30.11F HX  95
WINNSBORO      FAIR      95  63  34 W5        30.10F HX  96


...EASTERN AND COASTAL SOUTH CAROLINA...

CITY           SKY/WX    TMP DP  RH WIND       PRES   REMARKS
MYRTLE BEACH   FAIR      83  76  79 E9        30.14F
N MYRTLE BCH   FAIR      84  75  74 E13G20    30.13F
CONWAY         FAIR      90  73  58 SE8       30.11F HX  98
MARION         MOCLDY    97  68  38 SW6       30.09F HX 101
HARTSVILLE     FAIR      91  64  40 CALM      30.09F
FLORENCE       FAIR      96  65  35 S3        30.09F HX  98
DARLINGTON     FAIR      95  70  44 E13       30.09F HX 101
CHARLESTON APT FAIR      95  72  47 SE12      30.09F HX 103
MOUNT PLEASANT FAIR      90  77  66 SE5       30.10F HX 102
WALTERBORO     FAIR      95  66  38 CALM      30.10F HX  98
BEAUFORT       FAIR     101  66  31 CALM      30.09F HX 105
HILTON HEAD    MOSUNNY   93  72  49 S7        30.11F HX 100


...EASTERN GEORGIA...

CITY           SKY/WX    TMP DP  RH WIND       PRES   REMARKS
AUGUSTA BUSH F FAIR      96  67  38 VRB5      30.09F HX 100
AUGUSTA DANIEL FAIR      95  64  35 VRB5      30.11F HX  97
THOMSON        FAIR      96  64  33 N9        30.12F HX  98
CLAXTON        FAIR     100  66  33 W6        30.10F HX 103
SYLVANIA       FAIR     100  60  26 NW8       30.10F HX 100
STATESBORO     FAIR      97  59  28 W5        30.10F HX  96
SAVANNAH       PTSUNNY   97  66  36 VRB3      30.09F HX 100


...SOUTHERN NORTH CAROLINA...

CITY           SKY/WX    TMP DP  RH WIND       PRES   REMARKS
CHARLOTTE      FAIR      94  67  41 SW7       30.12F HX  97
MONROE         PTSUNNY   83  68  60 SW8G20    30.12F
WADESBORO      FAIR      94  67  41 SE5       30.09F HX  97
ROCKINGHAM     FAIR      94  63  35 SW3       30.10F HX  96
RUTHERFORDTON  FAIR      88  64  45 SW5       30.14F
ASHEVILLE      FAIR      89  59  36 N5        30.19F

$$




USA.gov is the U.S. government's official web portal to all federal, state and local government web resources and services.